Weather History for KLAR - August, 2014

Change the Weather History Date:

Friday, August 29, 2014

  Actual Average Record
Temperature  
Mean Temperature 56 °F 60 °F  
Max Temperature 69 °F 75 °F 88 °F (1948)
Min Temperature 43 °F 44 °F 31 °F (1962)
Degree Days  
Heating Degree Days 9 5  
Month to date heating degree days 110 90  
Since 1 June heating degree days 407 400  
Since 1 July heating degree days 165 159  
Cooling Degree Days 0 0  
Month to date cooling degree days 2 17  
Year to date cooling degree days 67 64  
Since 1 June cooling degree days 67 64  
Growing Degree Days 6 (Base 50)    
Moisture  
Dew Point 44 °F    
Average Humidity 67    
Maximum Humidity 92    
Minimum Humidity 42    
Precipitation  
Precipitation T in 0.04 in 0.36 in (1951)
Month to date precipitation 1.43 1.16  
Year to date precipitation 10.59 8.08  
Sea Level Pressure  
Sea Level Pressure 30.03 in    
Wind  
Wind Speed 8 mph (SE)    
Max Wind Speed 16 mph    
Max Gust Speed 19 mph    
Visibility 10 miles    
Events Thunderstorm    
T = Trace of Precipitation, MM = Missing Value Source: NWS Daily Summary

Daily Weather History Graph

Daily Weather History Graph

Search for Another Location

Airport or City:

Trip Planner

Search our weather history database for the weather conditions in past years. The results will help you decide how hot, cold, wet, or windy it might be!

Date:

Astronomy

Aug. 29, 2014 Rise Set
Actual Time 6:26 AM MDT 7:40 PM MDT
Civil Twilight 5:57 AM MDT 8:08 PM MDT
Nautical Twilight 5:23 AM MDT 8:42 PM MDT
Astronomical Twilight 4:47 AM MDT 9:18 PM MDT
Moon 10:21 AM MDT (8/29) 9:36 PM MDT (8/29)
Length of Visible Light 14h 11m
Length of Day
13h 14m
Waxing Crescent, 15% of the Moon is Illuminated
Aug 29
Waxing Crescent
Sep 2
First Quarter
Sep 8
Full
Sep 15
Last Quarter
Sep 24
New

Hourly Weather History & Observations

Time (MDT) Temp. Windchill Dew Point Humidity Pressure Visibility Wind Dir Wind Speed Gust Speed Precip Events Conditions
12:53 AM 45.0 °F 40.6 °F 42.1 °F 90% 30.04 in 10.0 mi SE 8.1 mph - N/A   Clear
1:53 AM 44.1 °F 39.5 °F 42.1 °F 93% 30.01 in 10.0 mi SE 8.1 mph - N/A   Clear
2:53 AM 45.0 °F 41.2 °F 42.1 °F 90% 29.97 in 10.0 mi SE 6.9 mph - N/A   Mostly Cloudy
3:53 AM 46.0 °F 43.1 °F 43.0 °F 89% 29.96 in 10.0 mi ESE 5.8 mph - N/A   Mostly Cloudy
4:53 AM 44.1 °F - 41.0 °F 89% 29.94 in 10.0 mi Calm Calm - N/A   Clear
5:53 AM 44.1 °F 40.1 °F 41.0 °F 89% 29.96 in 10.0 mi SE 6.9 mph - N/A   Clear
6:53 AM 45.0 °F 40.6 °F 42.1 °F 90% 29.99 in 10.0 mi SE 8.1 mph - N/A   Partly Cloudy
7:53 AM 46.9 °F - 43.0 °F 86% 30.02 in 10.0 mi SE 4.6 mph - N/A   Scattered Clouds
9:53 AM 61.0 °F - 46.0 °F 58% 30.00 in 10.0 mi North 6.9 mph - N/A   Partly Cloudy
10:53 AM 64.0 °F - 45.0 °F 50% 29.98 in 10.0 mi NW 12.7 mph - N/A   Clear
11:53 AM 64.9 °F - 44.1 °F 47% 30.00 in 10.0 mi North 8.1 mph - N/A   Clear
12:53 PM 68.0 °F - 44.1 °F 42% 29.97 in 10.0 mi North 8.1 mph - N/A   Clear
2:09 PM 66.9 °F - 42.1 °F 40% 30.20 in 10.0 mi East 5.8 mph - N/A   Mostly Cloudy
2:35 PM 66.0 °F - 43.0 °F 43% 30.19 in 10.0 mi North 9.2 mph - N/A Thunderstorm Thunderstorm
2:50 PM 62.6 °F - 44.6 °F 52% 30.19 in 10.0 mi SSE 11.5 mph - N/A Thunderstorm Overcast
2:53 PM 62.1 °F - 45.0 °F 53% 29.96 in 10.0 mi ESE 8.1 mph - N/A Thunderstorm Overcast
3:43 PM 64.9 °F - 45.0 °F 48% 30.19 in 10.0 mi SE 10.4 mph - N/A Thunderstorm Thunderstorm
3:53 PM 63.0 °F - 44.1 °F 50% 29.94 in 10.0 mi SE 12.7 mph - N/A Thunderstorm Overcast
4:14 PM 64.9 °F - 42.1 °F 43% 30.18 in 10.0 mi Variable 3.5 mph - N/A   Overcast
4:53 PM 64.9 °F - 45.0 °F 48% 29.94 in 10.0 mi South 8.1 mph - N/A   Mostly Cloudy
5:53 PM 66.0 °F - 46.9 °F 50% 29.95 in 10.0 mi South 9.2 mph - N/A   Mostly Cloudy
6:05 PM 66.0 °F - 46.9 °F 50% 30.19 in 10.0 mi South 8.1 mph - N/A Thunderstorm Scattered Clouds
6:20 PM 64.0 °F - 46.0 °F 52% 30.19 in 10.0 mi South 10.4 mph - N/A   Scattered Clouds
6:53 PM 62.1 °F - 48.9 °F 62% 29.95 in 10.0 mi SE 6.9 mph - N/A   Mostly Cloudy
7:53 PM 57.9 °F - 48.9 °F 72% 29.97 in 10.0 mi East 8.1 mph - N/A   Mostly Cloudy
9:53 PM 53.1 °F - 46.0 °F 77% 29.96 in 10.0 mi SE 11.5 mph - N/A   Clear
10:53 PM 51.1 °F - 46.0 °F 83% 29.95 in 10.0 mi SSE 10.4 mph - N/A   Clear
11:53 PM 52.0 °F - 45.0 °F 77% 29.93 in 10.0 mi South 10.4 mph - 0.00 in   Mostly Cloudy